Regional Weather Roundup
Issued by NWS

Home | Current Version | Previous Version | Graphics & Text | Print | Product List | Glossary On
Versions: 1 2 3 4 5 6 7 8 9 10 11 12 13 14 15 16 17 18 19 20 21 22 23 24 25 26 27 28 29 30 31 32 33 34 35 36 37 38 39 40 41 42 43 44 45 46 47 48 49 50
000
ASUS43 KBIS 021510
RWRND

NORTH DAKOTA REGIONAL WEATHER ROUNDUP
NATIONAL WEATHER SERVICE BISMARCK ND
1000 AM CDT WED SEP 02 2015

NOTE: "FAIR" INDICATES FEW OR NO CLOUDS BELOW 12,000 FEET WITH NO
SIGNIFICANT WEATHER AND/OR OBSTRUCTIONS TO VISIBILITY.


NDZ001>003-009>011-017-021600-
NORTHWEST NORTH DAKOTA

CITY           SKY/WX    TMP DP  RH WIND       PRES   REMARKS
WILLISTON      PTSUNNY   73  57  57 S3        29.76F
MINOT          SUNNY     74  64  71 CALM      29.77F
MINOT AFB      SUNNY     77  70  80 CALM      29.76F
$$

NDZ018>021-031>035-040>046-021600-
SOUTHWEST NORTH DAKOTA

CITY           SKY/WX    TMP DP  RH WIND       PRES   REMARKS
BISMARCK       FOG       67  65  93 E6        29.81S VSB 1
DICKINSON      MOSUNNY   78  57  48 E9        29.78S
GARRISON         N/A     72  66  81 SE6       29.79F
HETTINGER ARPT MOSUNNY   71  56  58 S6        29.84R
$$

NDZ004>008-012>016-024-026-027-054-021600-
NORTHEAST NORTH DAKOTA

CITY           SKY/WX    TMP DP  RH WIND       PRES   REMARKS
GRAND FORKS    MOSUNNY   74  67  78 S10       29.82S
GRND FRKS AFB  MOSUNNY   73  68  84 S10       29.83S
DEVILS LAKE    SUNNY     73  63  68 S8        29.81S
$$

NDZ022-023-025-028>030-036>039-047>053-021600-
SOUTHEAST NORTH DAKOTA

CITY           SKY/WX    TMP DP  RH WIND       PRES   REMARKS
FARGO          SUNNY     75  63  66 SE8G21    29.82F
JAMESTOWN      SUNNY     72  66  81 SE8       29.82F
$$




USA.gov is the U.S. government's official web portal to all federal, state and local government web resources and services.